Topeka, KS

4:38 PM CDT on October 18, 2019 (GMT -0500)
Billard Municipal

Weather History for KTOP - August, 2019

Change the Weather History Date:

Saturday, August 3, 2019

  Actual Average Record
Temperature  
Mean Temperature 78 °F 79 °F  
Max Temperature 86 °F 90 °F 110 °F (1930)
Min Temperature 70 °F 68 °F 49 °F (1976)
Degree Days  
Heating Degree Days 0 0  
Month to date heating degree days 0 0  
Since 1 June heating degree days 0 8  
Since 1 July heating degree days 0 0  
Cooling Degree Days 13 14  
Month to date cooling degree days 35 42  
Year to date cooling degree days 914 884  
Since 1 June cooling degree days 802 758  
Growing Degree Days 28 (Base 50)    
Moisture  
Dew Point 68 °F    
Average Humidity 71    
Maximum Humidity 90    
Minimum Humidity 51    
Precipitation  
Precipitation 0.02 in 0.14 in 3.17 in (1985)
Month to date precipitation 1.67 0.40  
Year to date precipitation 30.53 22.73  
Snow  
Snow 0.00 in 0.00 in T in (1937)
Month to date snowfall 0.0 0.0  
Year to date snowfall 18.5 11.3  
Since 1 July snowfall 0.0 0.0  
Snow Depth 0.00 in    
Sea Level Pressure  
Sea Level Pressure 30.01 in    
Wind  
Wind Speed 5 mph (East)    
Max Wind Speed 13 mph    
Max Gust Speed 17 mph    
Visibility 10 miles    
Events Rain    
T = Trace of Precipitation, MM = Missing Value Source: NWS Daily Summary

Daily Weather History Graph

Daily Weather History Graph

Search for Another Location

Airport or City:

Astronomy

Aug. 03, 2019 Rise Set
Actual Time 6:24 AM CDT 8:32 PM CDT
Civil Twilight 5:55 AM CDT 9:01 PM CDT
Nautical Twilight 5:18 AM CDT 9:37 PM CDT
Astronomical Twilight 4:39 AM CDT 10:17 PM CDT
Moon 9:17 AM CDT (8/3) 10:39 PM CDT (8/3)
Length of Visible Light 15h 06m
Length of Day
14h 07m
Waxing Crescent, 10% of the Moon is Illuminated
Aug 3
Waxing Crescent
Aug 7
First Quarter
Aug 15
Full
Aug 23
Last Quarter
Aug 30
New

Hourly Weather History & Observations

Time (CDT) Temp. Heat Index Dew Point Humidity Pressure Visibility Wind Dir Wind Speed Gust Speed Precip Events Conditions
12:53 AM 73.9 °F - 69.1 °F 85% 30.02 in 10.0 mi East 6.9 mph - N/A   Overcast
1:53 AM 73.9 °F - 69.1 °F 85% 30.03 in 10.0 mi ESE 4.6 mph - N/A   Overcast
2:53 AM 72.0 °F - 70.0 °F 93% 30.02 in 5.0 mi East 6.9 mph - 0.01 in Rain Light Rain
3:53 AM 72.0 °F - 69.1 °F 91% 30.02 in 9.0 mi East 4.6 mph - 0.01 in   Overcast
4:50 AM 71.6 °F - 68.0 °F 88% 30.04 in 10.0 mi ENE 5.8 mph - N/A   Overcast
4:53 AM 71.1 °F - 68.0 °F 90% 30.02 in 10.0 mi ENE 5.8 mph - N/A   Mostly Cloudy
5:32 AM 71.1 °F - 66.9 °F 87% 30.04 in 10.0 mi East 4.6 mph - N/A   Mostly Cloudy
5:53 AM 71.1 °F - 66.9 °F 87% 30.01 in 10.0 mi ENE 3.5 mph - N/A   Clear
6:53 AM 71.1 °F - 66.9 °F 87% 30.01 in 9.0 mi East 3.5 mph - N/A   Partly Cloudy
7:53 AM 71.1 °F - 66.9 °F 87% 30.02 in 10.0 mi Calm Calm - N/A   Partly Cloudy
8:53 AM 75.0 °F - 68.0 °F 79% 30.03 in 10.0 mi East 4.6 mph - N/A   Overcast
9:53 AM 79.0 °F - 69.1 °F 72% 30.02 in 10.0 mi ENE 5.8 mph - N/A   Clear
10:53 AM 81.0 °F 83.8 °F 68.0 °F 65% 30.03 in 10.0 mi ENE 6.9 mph - N/A   Clear
11:53 AM 81.0 °F 83.8 °F 68.0 °F 65% 30.03 in 10.0 mi East 8.1 mph - N/A   Overcast
12:53 PM 82.9 °F 87.0 °F 70.0 °F 65% 30.02 in 10.0 mi NE 5.8 mph - N/A   Scattered Clouds
1:53 PM 84.0 °F 86.5 °F 66.9 °F 56% 30.00 in 10.0 mi NE 8.1 mph - N/A   Clear
2:53 PM 84.9 °F 88.8 °F 69.1 °F 59% 30.00 in 10.0 mi East 9.2 mph - N/A   Mostly Cloudy
3:53 PM 84.9 °F 87.1 °F 66.0 °F 53% 29.99 in 10.0 mi East 10.4 mph - N/A   Mostly Cloudy
4:53 PM 86.0 °F 90.1 °F 69.1 °F 57% 29.98 in 10.0 mi East 8.1 mph - N/A   Partly Cloudy
5:53 PM 84.9 °F 87.1 °F 66.0 °F 53% 29.97 in 10.0 mi East 9.2 mph - N/A   Clear
6:53 PM 84.0 °F 85.8 °F 64.9 °F 53% 29.96 in 10.0 mi East 6.9 mph - N/A   Clear
7:53 PM 81.0 °F 83.0 °F 66.0 °F 60% 29.97 in 10.0 mi East 4.6 mph - N/A   Clear
8:53 PM 77.0 °F - 66.0 °F 69% 29.98 in 10.0 mi Calm Calm - N/A   Clear
9:53 PM 73.9 °F - 66.9 °F 79% 29.99 in 9.0 mi Calm Calm - N/A   Clear
10:53 PM 72.0 °F - 66.9 °F 84% 30.00 in 10.0 mi Calm Calm - N/A   Clear
11:53 PM 71.1 °F - 66.9 °F 87% 30.02 in 10.0 mi Calm Calm - N/A   Clear